GW1942 Weather Reports


time (UTC)temp
C
wind
direction
speed
KPH
gust
KPH
rain 1hr
cm
rain 24hr
cm
rain mn
cm
humidity
%
barometer
mb
20260901094508 7 161 0.0 0.0 0.00 0.00 0.00 72 1010.8
20260901093007 7 161 0.0 0.0 0.00 0.00 0.00 73 1010.7
20260901091504 7 161 0.0 0.0 0.00 0.00 0.00 72 1010.7
20260901090006 7 161 0.0 0.0 0.00 0.00 0.00 72 1010.4
20260901084503 7 161 0.0 0.0 0.00 0.00 0.00 70 1010.5
20260901083100 8 161 0.0 0.0 0.00 0.00 0.00 70 1010.6
20260901081558 8 162 0.0 0.0 0.00 0.00 0.00 69 1010.5
20260901080057 8 162 0.0 1.6 0.00 0.00 0.00 69 1010.4
20260901074606 8 162 0.0 3.2 0.00 0.00 0.00 69 1010.5
20260901073052 8 161 0.0 1.6 0.00 0.00 0.00 68 1010.4
20260901071553 9 161 0.0 3.2 0.00 0.00 0.00 67 1010.4
20260901070050 9 161 0.0 0.0 0.00 0.00 0.00 66 1010.4
20260901064548 9 161 0.0 0.0 0.00 0.00 0.00 66 1010.5
20260901063046 10 161 0.0 0.0 0.00 0.00 0.00 66 1010.5
20260901061544 10 161 0.0 0.0 0.00 0.00 0.00 64 1010.7
20260901060041 10 161 0.0 1.6 0.00 0.00 0.00 64 1010.4
20260901054541 10 161 0.0 3.2 0.00 0.00 0.00 62 1010.6
20260901053050 11 161 0.0 0.0 0.00 0.00 0.00 62 1010.6
20260901051541 11 161 0.0 0.0 0.00 0.00 0.00 62 1010.6
20260901050040 11 161 0.0 3.2 0.00 0.00 0.00 60 1010.6
20260901044540 12 161 0.0 1.6 0.00 0.00 0.00 60 1010.6
20260901043040 13 161 0.0 3.2 0.00 0.00 0.00 56 1010.7
20260901041543 15 162 0.0 1.6 0.00 0.00 0.00 53 1010.6
20260901040045 15 161 0.0 1.6 0.00 0.00 0.00 52 1010.6
20260901034537 16 161 0.0 3.2 0.00 0.00 0.00 49 1010.5
20260901033037 17 161 0.0 3.2 0.00 0.00 0.00 45 1010.4
20260901031536 18 161 1.6 4.8 0.00 0.00 0.00 43 1010.3
20260901030035 18 161 1.6 6.4 0.00 0.00 0.00 41 1010.1
20260901024535 19 161 4.8 8.0 0.00 0.00 0.00 39 1009.9
20260901023034 21 161 1.6 4.8 0.00 0.00 0.00 36 1009.8
20260901021534 22 161 1.6 3.2 0.00 0.00 0.00 35 1009.8
20260901020033 24 161 0.0 4.8 0.00 0.00 0.00 31 1009.8
20260901014532 25 161 3.2 6.4 0.00 0.00 0.00 30 1010.0
20260901013050 25 162 1.6 6.4 0.00 0.00 0.00 29 1010.1
20260901011537 27 161 1.6 8.0 0.00 0.00 0.00 27 1010.1
20260901010030 27 162 4.8 14.5 0.00 0.00 0.00 27 1010.1
20260901004529 27 161 8.0 11.3 0.00 0.00 0.00 26 1010.2
20260901003029 27 161 1.6 6.4 0.00 0.00 0.00 26 1010.3
20260901001530 27 161 3.2 11.3 0.00 0.00 0.00 25 1010.5
20260901000029 27 161 3.2 12.9 0.00 0.00 0.00 26 1010.6
20260831234523 27 161 4.8 9.7 0.00 0.00 0.00 25 1010.6
20260831233023 27 161 4.8 11.3 0.00 0.00 0.00 25 1010.6
20260831231517 27 161 1.6 8.0 0.00 0.00 0.00 25 1010.8
20260831230018 27 161 1.6 6.4 0.00 0.00 0.00 25 1011.1
20260831224513 27 161 0.0 6.4 0.00 0.00 0.00 26 1011.2
20260831223013 27 161 1.6 6.4 0.00 0.00 0.00 25 1011.4
20260831221510 27 161 1.6 6.4 0.00 0.00 0.00 27 1011.4
20260831220008 27 161 1.6 6.4 0.00 0.00 0.00 25 1011.8
20260831214506 26 161 1.6 9.7 0.00 0.00 0.00 27 1012.0
20260831213001 26 161 1.6 6.4 0.00 0.00 0.00 28 1012.4
20260831211559 26 161 1.6 11.3 0.00 0.00 0.00 28 1012.6
20260831210055 25 161 0.0 8.0 0.00 0.00 0.00 29 1012.9
20260831204600 25 161 1.6 8.0 0.00 0.00 0.00 28 1013.2
20260831203116 25 161 4.8 8.0 0.00 0.00 0.00 28 1013.5
20260831201601 24 161 0.0 4.8 0.00 0.00 0.00 30 1013.6
20260831200134 25 161 4.8 14.5 0.00 0.00 0.00 30 1013.6
20260831194551 24 161 1.6 4.8 0.00 0.00 0.00 30 1014.0
20260831193144 25 161 1.6 4.8 0.00 0.00 0.00 29 1014.3
20260831191539 24 161 1.6 4.8 0.00 0.00 0.00 30 1014.6
20260831190040 23 161 1.6 8.0 0.00 0.00 0.00 31 1014.9
20260831184534 23 161 0.0 4.8 0.00 0.00 0.00 32 1015.3
20260831183030 22 161 1.6 4.8 0.00 0.00 0.00 34 1015.7
20260831181531 21 161 1.6 8.0 0.00 0.00 0.00 34 1015.7
20260831180024 21 161 1.6 4.8 0.00 0.00 0.00 36 1016.0
20260831174521 19 161 1.6 6.4 0.00 0.00 0.00 39 1016.4
20260831173020 19 161 3.2 6.4 0.00 0.00 0.00 39 1016.6
20260831171518 18 161 1.6 3.2 0.00 0.00 0.00 41 1016.7
20260831170016 17 161 0.0 4.8 0.00 0.00 0.00 43 1016.9
20260831164518 17 161 0.0 1.6 0.00 0.00 0.00 44 1017.1
20260831163017 16 161 0.0 1.6 0.00 0.00 0.00 47 1017.4
20260831161511 15 161 0.0 3.2 0.00 0.00 0.00 48 1017.5
20260831160008 15 161 0.0 0.0 0.00 0.00 0.00 48 1017.5
20260831154505 15 161 0.0 0.0 0.00 0.00 0.00 50 1017.7
20260831153100 13 161 0.0 0.0 0.00 0.00 0.00 53 1017.8
20260831153001 13 161 0.0 0.0 0.00 0.00 0.00 52 1017.8
20260831151559 12 161 0.0 0.0 0.00 0.00 0.00 56 1017.8
20260831150058 12 161 0.0 3.2 0.00 0.00 0.00 57 1018.0
20260831144557 11 161 0.0 3.2 0.00 0.00 0.00 60 1017.8
20260831143057 11 161 0.0 1.6 0.00 0.00 0.00 62 1017.8
20260831141605 10 161 0.0 4.8 0.00 0.00 0.00 66 1017.7
20260831140054 8 161 0.0 0.0 0.00 0.00 0.00 72 1017.6
20260831134554 6 161 0.0 0.0 0.00 0.00 0.00 77 1017.4
20260831133050 4 161 0.0 0.0 0.00 0.00 0.00 83 1017.4
20260831131550 3 161 0.0 0.0 0.00 0.00 0.00 82 1017.2
20260831130045 4 161 0.0 0.0 0.00 0.00 0.00 81 1017.1
20260831124543 5 161 0.0 1.6 0.00 0.00 0.00 79 1016.9
20260831123041 5 161 0.0 3.2 0.00 0.00 0.00 80 1016.8
20260831121539 5 161 0.0 0.0 0.00 0.00 0.00 80 1016.9
20260831120038 5 161 0.0 3.2 0.00 0.00 0.00 79 1016.7
20260831114536 5 161 0.0 0.0 0.00 0.00 0.00 80 1016.6
20260831113038 5 161 0.0 0.0 0.00 0.00 0.00 79 1016.5
20260831111531 5 161 0.0 0.0 0.00 0.00 0.00 78 1016.5
20260831110027 6 161 0.0 0.0 0.00 0.00 0.00 79 1016.4
20260831104532 6 161 0.0 3.2 0.00 0.00 0.00 78 1016.3
20260831103021 7 161 0.0 0.0 0.00 0.00 0.00 75 1016.1
20260831101519 7 161 0.0 0.0 0.00 0.00 0.00 75 1015.8
20260831100014 8 161 0.0 0.0 0.00 0.00 0.00 73 1015.7